Time,TemperatureF,DewpointF,PressureIn,WindDirection,WindDirectionDegrees,WindSpeedMPH,WindSpeedGustMPH,Humidity,HourlyPrecipIn,Conditions,Clouds,dailyrainin,SoftwareType,DateUTC
2013-06-09 00:01:00,53.1,52.0,30.08,SSW,200,0.0,1.0,96,0.00,,CLR,0.00,VWS V13.01,2013-06-09 04:01:00,
2013-06-09 00:02:00,53.1,52.0,30.08,SSW,200,0.0,1.0,96,0.00,,CLR,0.00,VWS V13.01,2013-06-09 04:02:00,
2013-06-09 00:07:00,52.9,51.8,30.09,SSW,200,0.0,1.0,96,0.00,,CLR,0.00,VWS V13.01,2013-06-09 04:07:00,
2013-06-09 00:12:00,52.8,51.7,30.08,SSW,200,0.0,2.0,96,0.00,,CLR,0.00,VWS V13.01,2013-06-09 04:12:00,
2013-06-09 00:17:00,52.6,51.5,30.09,SSW,200,1.0,2.0,96,0.00,,CLR,0.00,VWS V13.01,2013-06-09 04:17:00,
2013-06-09 00:22:00,52.5,51.4,30.08,SSW,200,0.0,1.0,96,0.00,,CLR,0.00,VWS V13.01,2013-06-09 04:22:00,
2013-06-09 00:27:00,52.3,51.2,30.09,SSW,200,1.0,1.0,96,0.00,,CLR,0.00,VWS V13.01,2013-06-09 04:27:00,
2013-06-09 00:32:00,52.1,51.0,30.09,SSW,200,0.0,1.0,96,0.00,,CLR,0.00,VWS V13.01,2013-06-09 04:32:00,
2013-06-09 00:37:00,51.9,51.1,30.09,SSW,200,0.0,1.0,97,0.00,,CLR,0.00,VWS V13.01,2013-06-09 04:37:00,
2013-06-09 00:42:00,51.8,51.0,30.09,SSW,200,0.0,1.0,97,0.00,,CLR,0.00,VWS V13.01,2013-06-09 04:42:00,
2013-06-09 00:47:00,51.7,50.6,30.10,SSW,200,0.0,0.0,96,0.00,,CLR,0.00,VWS V13.01,2013-06-09 04:47:00,
2013-06-09 00:52:00,51.8,51.0,30.10,ESE,116,2.0,4.0,97,0.00,,CLR,0.00,VWS V13.01,2013-06-09 04:52:00,
2013-06-09 00:57:00,52.2,51.7,30.10,ESE,103,0.0,2.0,98,0.00,,CLR,0.00,VWS V13.01,2013-06-09 04:57:00,
2013-06-09 01:02:00,52.0,51.2,30.10,ESE,103,0.0,1.0,97,0.00,,CLR,0.00,VWS V13.01,2013-06-09 05:02:00,
2013-06-09 01:07:00,51.7,50.6,30.10,ESE,103,0.0,0.0,96,0.00,,CLR,0.00,VWS V13.01,2013-06-09 05:07:00,
2013-06-09 01:12:00,51.4,50.3,30.10,ESE,103,1.0,2.0,96,0.00,,CLR,0.00,VWS V13.01,2013-06-09 05:12:00,
2013-06-09 01:17:00,51.0,49.9,30.10,ESE,103,0.0,2.0,96,0.00,,CLR,0.00,VWS V13.01,2013-06-09 05:17:00,
2013-06-09 01:22:00,50.8,50.0,30.10,ESE,103,0.0,2.0,97,0.00,,CLR,0.00,VWS V13.01,2013-06-09 05:22:00,
2013-06-09 01:27:00,50.6,49.8,30.10,ESE,103,0.0,1.0,97,0.00,,CLR,0.00,VWS V13.01,2013-06-09 05:27:00,
2013-06-09 01:32:00,50.6,49.8,30.10,ESE,103,0.0,1.0,97,0.00,,CLR,0.00,VWS V13.01,2013-06-09 05:32:00,
2013-06-09 01:37:00,50.4,49.6,30.10,ESE,103,2.0,2.0,97,0.00,,CLR,0.00,VWS V13.01,2013-06-09 05:37:00,
2013-06-09 01:42:00,50.3,49.5,30.11,East,80,0.0,2.0,97,0.00,,CLR,0.00,VWS V13.01,2013-06-09 05:42:00,
2013-06-09 01:47:00,50.2,49.4,30.10,East,79,0.0,0.0,97,0.00,,CLR,0.00,VWS V13.01,2013-06-09 05:47:00,
2013-06-09 01:52:00,50.1,49.3,30.11,East,80,0.0,1.0,97,0.00,,CLR,0.00,VWS V13.01,2013-06-09 05:52:00,
2013-06-09 01:57:00,50.1,49.3,30.11,East,79,0.0,0.0,97,0.00,,CLR,0.00,VWS V13.01,2013-06-09 05:57:00,
2013-06-09 02:03:00,50.2,49.4,30.11,East,79,1.0,2.0,97,0.00,,CLR,0.00,VWS V13.01,2013-06-09 06:03:00,
2013-06-09 02:08:00,50.0,49.2,30.11,East,79,0.0,2.0,97,0.00,,CLR,0.00,VWS V13.01,2013-06-09 06:08:00,
2013-06-09 02:13:00,50.0,49.2,30.11,East,79,0.0,0.0,97,0.00,,CLR,0.00,VWS V13.01,2013-06-09 06:13:00,
2013-06-09 02:18:00,50.0,49.2,30.11,East,79,0.0,0.0,97,0.00,,CLR,0.00,VWS V13.01,2013-06-09 06:18:00,
2013-06-09 02:23:00,49.9,49.1,30.11,East,79,0.0,1.0,97,0.00,,CLR,0.00,VWS V13.01,2013-06-09 06:23:00,
2013-06-09 02:28:00,49.9,49.1,30.11,East,79,0.0,0.0,97,0.00,,CLR,0.00,VWS V13.01,2013-06-09 06:28:00,
2013-06-09 02:33:00,49.7,48.9,30.11,East,79,1.0,3.0,97,0.00,,CLR,0.00,VWS V13.01,2013-06-09 06:33:00,
2013-06-09 02:38:00,49.5,48.7,30.11,East,79,0.0,2.0,97,0.00,,CLR,0.00,VWS V13.01,2013-06-09 06:38:00,
2013-06-09 02:43:00,49.3,48.5,30.11,East,79,0.0,1.0,97,0.00,,CLR,0.00,VWS V13.01,2013-06-09 06:43:00,
2013-06-09 02:48:00,49.0,48.2,30.11,East,79,1.0,2.0,97,0.00,,CLR,0.00,VWS V13.01,2013-06-09 06:48:00,
2013-06-09 02:53:00,49.0,48.2,30.11,East,79,1.0,2.0,97,0.00,,CLR,0.00,VWS V13.01,2013-06-09 06:53:00,
2013-06-09 02:58:00,49.0,48.2,30.11,East,79,2.0,3.0,97,0.00,,CLR,0.00,VWS V13.01,2013-06-09 06:58:00,
2013-06-09 03:03:00,48.9,48.1,30.11,East,79,3.0,3.0,97,0.00,,CLR,0.00,VWS V13.01,2013-06-09 07:03:00,
2013-06-09 03:08:00,48.8,48.0,30.11,ENE,78,0.0,3.0,97,0.00,,CLR,0.00,VWS V13.01,2013-06-09 07:08:00,
2013-06-09 03:13:00,48.9,48.1,30.11,ENE,78,0.0,2.0,97,0.00,,CLR,0.00,VWS V13.01,2013-06-09 07:13:00,
2013-06-09 03:18:00,49.0,48.5,30.11,ENE,78,0.0,0.0,98,0.00,,CLR,0.00,VWS V13.01,2013-06-09 07:18:00,
2013-06-09 03:23:00,49.2,48.7,30.11,ENE,78,1.0,3.0,98,0.00,,CLR,0.00,VWS V13.01,2013-06-09 07:23:00,
2013-06-09 03:28:00,48.9,48.1,30.11,ENE,78,1.0,1.0,97,0.00,,CLR,0.00,VWS V13.01,2013-06-09 07:28:00,
2013-06-09 03:33:00,48.7,47.9,30.11,ENE,78,2.0,2.0,97,0.00,,CLR,0.00,VWS V13.01,2013-06-09 07:33:00,
2013-06-09 03:38:00,48.4,47.6,30.11,ENE,78,0.0,2.0,97,0.00,,CLR,0.00,VWS V13.01,2013-06-09 07:38:00,
2013-06-09 03:43:00,48.3,47.5,30.11,ENE,78,0.0,0.0,97,0.00,,CLR,0.00,VWS V13.01,2013-06-09 07:43:00,
2013-06-09 03:48:00,48.2,47.4,30.11,ENE,78,2.0,2.0,97,0.00,,CLR,0.00,VWS V13.01,2013-06-09 07:48:00,
2013-06-09 03:53:00,48.2,47.4,30.11,ENE,78,0.0,2.0,97,0.00,,CLR,0.00,VWS V13.01,2013-06-09 07:53:00,
2013-06-09 03:58:00,48.1,47.3,30.12,ENE,78,0.0,0.0,97,0.00,,CLR,0.00,VWS V13.01,2013-06-09 07:58:00,
2013-06-09 04:03:00,48.1,47.6,30.12,ENE,78,0.0,0.0,98,0.00,,,0.00,VWS V13.01,2013-06-09 08:03:00,
2013-06-09 04:08:00,48.1,47.3,30.12,ENE,78,0.0,1.0,97,0.00,,,0.00,VWS V13.01,2013-06-09 08:08:00,
2013-06-09 04:13:00,48.0,47.2,30.12,ENE,78,2.0,3.0,97,0.00,,,0.00,VWS V13.01,2013-06-09 08:13:00,
2013-06-09 04:18:00,48.0,47.5,30.12,ENE,78,2.0,3.0,98,0.00,,,0.00,VWS V13.01,2013-06-09 08:18:00,
2013-06-09 04:23:00,48.0,47.5,30.13,ENE,78,2.0,3.0,98,0.00,,,0.00,VWS V13.01,2013-06-09 08:23:00,
2013-06-09 04:28:00,47.9,47.1,30.13,ENE,78,1.0,2.0,97,0.00,,,0.00,VWS V13.01,2013-06-09 08:28:00,
2013-06-09 04:33:00,47.9,47.1,30.13,ENE,78,0.0,2.0,97,0.00,,,0.00,VWS V13.01,2013-06-09 08:33:00,
2013-06-09 04:38:00,48.0,47.5,30.12,ENE,78,0.0,1.0,98,0.00,,,0.00,VWS V13.01,2013-06-09 08:38:00,
2013-06-09 04:43:00,47.8,47.0,30.12,ENE,78,2.0,3.0,97,0.00,,,0.00,VWS V13.01,2013-06-09 08:43:00,
2013-06-09 04:48:00,47.7,46.9,30.12,ENE,78,2.0,3.0,97,0.00,,,0.00,VWS V13.01,2013-06-09 08:48:00,
2013-06-09 04:53:00,47.5,46.7,30.12,ENE,78,3.0,3.0,97,0.00,,,0.00,VWS V13.01,2013-06-09 08:53:00,
2013-06-09 04:58:00,47.7,47.2,30.12,ENE,78,1.0,3.0,98,0.00,,,0.00,VWS V13.01,2013-06-09 08:58:00,
2013-06-09 05:03:00,48.0,47.5,30.12,ENE,78,3.0,3.0,98,0.00,,CLR,0.00,VWS V13.01,2013-06-09 09:03:00,
2013-06-09 05:08:00,47.9,47.4,30.12,ENE,78,2.0,3.0,98,0.00,,CLR,0.00,VWS V13.01,2013-06-09 09:08:00,
2013-06-09 05:13:00,47.8,47.3,30.12,ENE,78,2.0,2.0,98,0.00,,CLR,0.00,VWS V13.01,2013-06-09 09:13:00,
2013-06-09 05:18:00,47.5,46.7,30.12,ENE,65,3.0,3.0,97,0.00,,CLR,0.00,VWS V13.01,2013-06-09 09:18:00,
2013-06-09 05:23:00,47.3,46.8,30.12,ENE,65,2.0,3.0,98,0.00,,CLR,0.00,VWS V13.01,2013-06-09 09:23:00,
2013-06-09 05:28:00,47.2,46.4,30.12,ENE,65,2.0,3.0,97,0.00,,CLR,0.00,VWS V13.01,2013-06-09 09:28:00,
2013-06-09 05:33:00,47.2,46.7,30.13,ENE,65,0.0,3.0,98,0.00,,CLR,0.00,VWS V13.01,2013-06-09 09:33:00,
2013-06-09 05:38:00,47.2,46.7,30.13,ENE,65,2.0,3.0,98,0.00,,CLR,0.00,VWS V13.01,2013-06-09 09:38:00,
2013-06-09 05:43:00,47.2,46.7,30.13,ENE,65,2.0,3.0,98,0.00,,CLR,0.00,VWS V13.01,2013-06-09 09:43:00,
2013-06-09 05:48:00,47.0,46.5,30.13,NE,47,3.0,4.0,98,0.00,,CLR,0.00,VWS V13.01,2013-06-09 09:48:00,
2013-06-09 05:53:00,46.9,46.4,30.13,NE,46,3.0,3.0,98,0.00,,CLR,0.00,VWS V13.01,2013-06-09 09:53:00,
2013-06-09 05:58:00,47.0,46.5,30.13,NE,46,0.0,3.0,98,0.00,,CLR,0.00,VWS V13.01,2013-06-09 09:58:00,
2013-06-09 06:03:00,47.4,46.9,30.14,NE,46,3.0,3.0,98,0.00,,CLR,0.00,VWS V13.01,2013-06-09 10:03:00,
2013-06-09 06:08:00,47.2,46.7,30.14,NE,46,3.0,3.0,98,0.00,,CLR,0.00,VWS V13.01,2013-06-09 10:08:00,
2013-06-09 06:13:00,47.2,46.7,30.14,NE,46,0.0,3.0,98,0.00,,CLR,0.00,VWS V13.01,2013-06-09 10:13:00,
2013-06-09 06:18:00,47.6,47.1,30.14,NE,46,3.0,3.0,98,0.00,,CLR,0.00,VWS V13.01,2013-06-09 10:18:00,
2013-06-09 06:23:00,47.5,47.0,30.14,NE,46,1.0,3.0,98,0.00,,CLR,0.00,VWS V13.01,2013-06-09 10:23:00,
2013-06-09 06:28:00,47.5,47.0,30.15,NE,46,2.0,3.0,98,0.00,,CLR,0.00,VWS V13.01,2013-06-09 10:28:00,
2013-06-09 06:33:00,47.6,47.1,30.15,NE,46,2.0,3.0,98,0.00,,CLR,0.00,VWS V13.01,2013-06-09 10:33:00,
2013-06-09 06:38:00,47.7,47.2,30.15,NE,46,2.0,3.0,98,0.00,,CLR,0.00,VWS V13.01,2013-06-09 10:38:00,
2013-06-09 06:43:00,47.9,47.4,30.15,NE,46,2.0,3.0,98,0.00,,CLR,0.00,VWS V13.01,2013-06-09 10:43:00,
2013-06-09 06:48:00,48.1,47.6,30.15,NE,46,2.0,3.0,98,0.00,,CLR,0.00,VWS V13.01,2013-06-09 10:48:00,
2013-06-09 06:53:00,48.5,48.0,30.15,NE,46,2.0,2.0,98,0.00,,CLR,0.00,VWS V13.01,2013-06-09 10:53:00,
2013-06-09 06:58:00,48.7,48.2,30.15,NE,46,2.0,3.0,98,0.00,,CLR,0.00,VWS V13.01,2013-06-09 10:58:00,
2013-06-09 07:03:00,48.8,48.3,30.15,NE,46,1.0,2.0,98,0.00,,CLR,0.00,VWS V13.01,2013-06-09 11:03:00,
2013-06-09 07:09:00,49.1,48.6,30.15,NE,46,1.0,2.0,98,0.00,,CLR,0.00,VWS V13.01,2013-06-09 11:09:00,
2013-06-09 07:14:00,49.5,49.0,30.15,NE,46,1.0,2.0,98,0.00,,CLR,0.00,VWS V13.01,2013-06-09 11:14:00,
2013-06-09 07:19:00,50.1,49.6,30.15,NE,46,0.0,1.0,98,0.00,,CLR,0.00,VWS V13.01,2013-06-09 11:19:00,
2013-06-09 07:24:00,50.6,50.1,30.16,NE,46,0.0,0.0,98,0.00,,CLR,0.00,VWS V13.01,2013-06-09 11:24:00,
2013-06-09 07:29:00,51.2,50.9,30.16,NE,46,0.0,0.0,99,0.00,,CLR,0.00,VWS V13.01,2013-06-09 11:29:00,
2013-06-09 07:34:00,52.1,51.8,30.16,NE,46,1.0,1.0,99,0.00,,CLR,0.00,VWS V13.01,2013-06-09 11:34:00,
2013-06-09 07:39:00,52.8,52.5,30.15,NE,46,0.0,1.0,99,0.00,,CLR,0.00,VWS V13.01,2013-06-09 11:39:00,
2013-06-09 07:44:00,53.3,53.0,30.15,NE,46,0.0,1.0,99,0.00,,CLR,0.00,VWS V13.01,2013-06-09 11:44:00,
2013-06-09 07:49:00,54.0,53.7,30.16,NE,46,0.0,1.0,99,0.00,,CLR,0.00,VWS V13.01,2013-06-09 11:49:00,
2013-06-09 07:54:00,54.9,54.6,30.16,NE,46,0.0,1.0,99,0.00,,CLR,0.00,VWS V13.01,2013-06-09 11:54:00,
2013-06-09 07:59:00,55.7,55.4,30.16,NE,46,2.0,2.0,99,0.00,,CLR,0.00,VWS V13.01,2013-06-09 11:59:00,
2013-06-09 08:04:00,56.1,55.8,30.16,ENE,61,2.0,3.0,99,0.00,,CLR,0.00,VWS V13.01,2013-06-09 12:04:00,
2013-06-09 08:09:00,56.4,56.1,30.16,East,79,1.0,3.0,99,0.00,,CLR,0.00,VWS V13.01,2013-06-09 12:09:00,
2013-06-09 08:14:00,56.7,56.1,30.16,East,80,2.0,5.0,98,0.00,,CLR,0.00,VWS V13.01,2013-06-09 12:14:00,
2013-06-09 08:19:00,57.1,56.0,30.16,East,80,1.0,5.0,96,0.00,,CLR,0.00,VWS V13.01,2013-06-09 12:19:00,
2013-06-09 08:24:00,57.4,56.0,30.16,East,82,2.0,5.0,95,0.00,,CLR,0.00,VWS V13.01,2013-06-09 12:24:00,
2013-06-09 08:29:00,57.7,56.0,30.16,East,82,3.0,3.0,94,0.00,,CLR,0.00,VWS V13.01,2013-06-09 12:29:00,
2013-06-09 08:34:00,57.9,55.9,30.16,East,82,3.0,3.0,93,0.00,,CLR,0.00,VWS V13.01,2013-06-09 12:34:00,
2013-06-09 08:39:00,58.1,55.8,30.16,East,83,3.0,5.0,92,0.00,,CLR,0.00,VWS V13.01,2013-06-09 12:39:00,
2013-06-09 08:44:00,58.2,55.6,30.16,East,83,3.0,3.0,91,0.00,,CLR,0.00,VWS V13.01,2013-06-09 12:44:00,
2013-06-09 08:49:00,58.5,56.2,30.16,East,83,2.0,3.0,92,0.00,,CLR,0.00,VWS V13.01,2013-06-09 12:49:00,
2013-06-09 08:54:00,58.7,56.1,30.16,East,83,2.0,3.0,91,0.00,,CLR,0.00,VWS V13.01,2013-06-09 12:54:00,
2013-06-09 08:59:00,58.8,55.9,30.15,ESE,108,3.0,5.0,90,0.00,,CLR,0.00,VWS V13.01,2013-06-09 12:59:00,
2013-06-09 09:04:00,58.6,55.7,30.15,ESE,108,4.0,5.0,90,0.00,,CLR,0.00,VWS V13.01,2013-06-09 13:04:00,
2013-06-09 09:09:00,58.5,55.9,30.15,ESE,107,2.0,5.0,91,0.00,,CLR,0.00,VWS V13.01,2013-06-09 13:09:00,
2013-06-09 09:14:00,58.7,55.8,30.15,ESE,107,2.0,4.0,90,0.00,,CLR,0.00,VWS V13.01,2013-06-09 13:14:00,
2013-06-09 09:19:00,58.9,55.7,30.15,East,95,2.0,5.0,89,0.00,,CLR,0.00,VWS V13.01,2013-06-09 13:19:00,
2013-06-09 09:24:00,59.0,55.8,30.15,East,96,5.0,5.0,89,0.00,,CLR,0.00,VWS V13.01,2013-06-09 13:24:00,
2013-06-09 09:29:00,59.0,55.8,30.15,East,96,2.0,5.0,89,0.00,,CLR,0.00,VWS V13.01,2013-06-09 13:29:00,
2013-06-09 09:34:00,59.1,55.9,30.15,East,96,1.0,3.0,89,0.00,,CLR,0.00,VWS V13.01,2013-06-09 13:34:00,
2013-06-09 09:39:00,59.3,56.1,30.16,East,96,2.0,3.0,89,0.00,,CLR,0.00,VWS V13.01,2013-06-09 13:39:00,
2013-06-09 09:44:00,59.6,56.7,30.16,East,96,2.0,3.0,90,0.00,,CLR,0.00,VWS V13.01,2013-06-09 13:44:00,
2013-06-09 09:49:00,59.8,56.6,30.16,East,96,1.0,3.0,89,0.00,,CLR,0.00,VWS V13.01,2013-06-09 13:49:00,
2013-06-09 09:54:00,59.9,56.3,30.15,East,96,1.0,3.0,88,0.00,,CLR,0.00,VWS V13.01,2013-06-09 13:54:00,
2013-06-09 09:59:00,60.1,56.8,30.15,East,96,2.0,3.0,89,0.00,,CLR,0.00,VWS V13.01,2013-06-09 13:59:00,
2013-06-09 10:04:00,60.2,56.6,30.15,East,96,2.0,3.0,88,0.00,,CLR,0.00,VWS V13.01,2013-06-09 14:04:00,
2013-06-09 10:09:00,60.4,56.8,30.15,ESE,107,2.0,4.0,88,0.00,,CLR,0.00,VWS V13.01,2013-06-09 14:09:00,
2013-06-09 10:14:00,60.6,57.3,30.15,ESE,118,5.0,5.0,89,0.00,,CLR,0.00,VWS V13.01,2013-06-09 14:14:00,
2013-06-09 10:19:00,60.3,56.4,30.15,ESE,120,5.0,7.0,87,0.00,,CLR,0.00,VWS V13.01,2013-06-09 14:19:00,
2013-06-09 10:24:00,59.8,55.9,30.15,ESE,119,5.0,5.0,87,0.00,,CLR,0.00,VWS V13.01,2013-06-09 14:24:00,
2013-06-09 10:29:00,59.3,55.8,30.14,East,99,5.0,7.0,88,0.00,,CLR,0.00,VWS V13.01,2013-06-09 14:29:00,
2013-06-09 10:34:00,59.6,56.0,30.14,East,88,3.0,6.0,88,0.00,,CLR,0.00,VWS V13.01,2013-06-09 14:34:00,
2013-06-09 10:39:00,59.9,56.3,30.14,East,88,5.0,5.0,88,0.00,,CLR,0.00,VWS V13.01,2013-06-09 14:39:00,
2013-06-09 10:44:00,60.1,56.5,30.14,East,92,5.0,5.0,88,0.00,,CLR,0.00,VWS V13.01,2013-06-09 14:44:00,
2013-06-09 10:49:00,60.3,56.7,30.14,East,101,5.0,6.0,88,0.00,,CLR,0.00,VWS V13.01,2013-06-09 14:49:00,
2013-06-09 10:54:00,60.4,56.8,30.14,East,101,3.0,6.0,88,0.00,,CLR,0.00,VWS V13.01,2013-06-09 14:54:00,
2013-06-09 10:59:00,60.5,56.6,30.14,East,101,3.0,6.0,87,0.00,,CLR,0.00,VWS V13.01,2013-06-09 14:59:00,
2013-06-09 11:04:00,60.6,56.7,30.14,ESE,107,4.0,6.0,87,0.00,,CLR,0.00,VWS V13.01,2013-06-09 15:04:00,
2013-06-09 11:09:00,60.6,56.7,30.14,ESE,107,3.0,5.0,87,0.00,,CLR,0.00,VWS V13.01,2013-06-09 15:09:00,
2013-06-09 11:14:00,61.0,57.4,30.14,East,94,3.0,5.0,88,0.00,,CLR,0.00,VWS V13.01,2013-06-09 15:14:00,
2013-06-09 11:19:00,61.7,57.5,30.14,East,97,5.0,7.0,86,0.00,,CLR,0.00,VWS V13.01,2013-06-09 15:19:00,
2013-06-09 11:24:00,63.5,57.6,30.14,East,96,7.0,9.0,81,0.00,,CLR,0.00,VWS V13.01,2013-06-09 15:24:00,
2013-06-09 11:29:00,64.7,58.0,30.14,East,101,7.0,9.0,79,0.00,,CLR,0.00,VWS V13.01,2013-06-09 15:29:00,
2013-06-09 11:34:00,64.7,57.3,30.14,East,98,5.0,7.0,77,0.00,,CLR,0.00,VWS V13.01,2013-06-09 15:34:00,
2013-06-09 11:39:00,64.7,57.3,30.14,East,99,6.0,8.0,77,0.00,,CLR,0.00,VWS V13.01,2013-06-09 15:39:00,
2013-06-09 11:44:00,65.2,57.1,30.14,East,94,7.0,10.0,75,0.00,,CLR,0.00,VWS V13.01,2013-06-09 15:44:00,
2013-06-09 11:49:00,65.3,57.2,30.14,East,101,8.0,10.0,75,0.00,,CLR,0.00,VWS V13.01,2013-06-09 15:49:00,
2013-06-09 11:54:00,64.9,57.5,30.14,East,94,7.0,10.0,77,0.00,,CLR,0.00,VWS V13.01,2013-06-09 15:54:00,
2013-06-09 11:59:00,64.9,57.5,30.14,East,90,9.0,10.0,77,0.00,,CLR,0.00,VWS V13.01,2013-06-09 15:59:00,
2013-06-09 12:04:00,65.4,57.3,30.14,East,96,9.0,11.0,75,0.00,,CLR,0.00,VWS V13.01,2013-06-09 16:04:00,
2013-06-09 12:09:00,65.8,57.3,30.14,ESE,103,7.0,11.0,74,0.00,,CLR,0.00,VWS V13.01,2013-06-09 16:09:00,
2013-06-09 12:14:00,66.3,57.0,30.14,East,81,5.0,14.0,72,0.00,,CLR,0.00,VWS V13.01,2013-06-09 16:14:00,
2013-06-09 12:19:00,66.5,57.2,30.14,East,101,8.0,13.0,72,0.00,,CLR,0.00,VWS V13.01,2013-06-09 16:19:00,
2013-06-09 12:24:00,66.2,56.5,30.14,East,90,7.0,13.0,71,0.00,,CLR,0.00,VWS V13.01,2013-06-09 16:24:00,
2013-06-09 12:29:00,66.2,57.3,30.14,NE,42,5.0,11.0,73,0.00,,CLR,0.00,VWS V13.01,2013-06-09 16:29:00,
2013-06-09 12:35:00,65.6,57.1,30.14,East,96,8.0,10.0,74,0.00,,CLR,0.00,VWS V13.01,2013-06-09 16:35:00,
2013-06-09 12:40:00,65.3,57.2,30.14,ENE,69,4.0,9.0,75,0.00,,CLR,0.00,VWS V13.01,2013-06-09 16:40:00,
2013-06-09 12:45:00,65.0,56.2,30.14,East,97,8.0,11.0,73,0.00,,CLR,0.00,VWS V13.01,2013-06-09 16:45:00,
2013-06-09 12:50:00,64.1,56.0,30.14,East,81,6.0,10.0,75,0.00,,CLR,0.00,VWS V13.01,2013-06-09 16:50:00,
2013-06-09 12:55:00,63.7,56.4,30.14,East,91,3.0,10.0,77,0.00,,CLR,0.00,VWS V13.01,2013-06-09 16:55:00,
2013-06-09 13:00:00,64.0,56.3,30.14,ESE,109,5.0,9.0,76,0.00,,CLR,0.00,VWS V13.01,2013-06-09 17:00:00,
2013-06-09 13:05:00,64.1,56.8,30.14,East,98,5.0,9.0,77,0.00,,CLR,0.00,VWS V13.01,2013-06-09 17:05:00,
2013-06-09 13:10:00,64.3,56.2,30.14,East,88,3.0,11.0,75,0.00,,CLR,0.00,VWS V13.01,2013-06-09 17:10:00,
2013-06-09 13:15:00,64.7,56.6,30.14,ESE,105,7.0,9.0,75,0.00,,CLR,0.00,VWS V13.01,2013-06-09 17:15:00,
2013-06-09 13:20:00,65.1,56.6,30.14,East,94,5.0,10.0,74,0.00,,CLR,0.00,VWS V13.01,2013-06-09 17:20:00,
2013-06-09 13:25:00,65.6,56.7,30.14,SE,126,8.0,11.0,73,0.00,,CLR,0.00,VWS V13.01,2013-06-09 17:25:00,
2013-06-09 13:30:00,66.0,56.0,30.13,East,86,6.0,13.0,70,0.00,,CLR,0.00,VWS V13.01,2013-06-09 17:30:00,
2013-06-09 13:35:00,66.5,57.2,30.13,East,85,5.0,15.0,72,0.00,,CLR,0.00,VWS V13.01,2013-06-09 17:35:00,
2013-06-09 13:40:00,66.2,55.7,30.13,East,93,7.0,10.0,69,0.00,,CLR,0.00,VWS V13.01,2013-06-09 17:40:00,
2013-06-09 13:45:00,66.0,56.0,30.13,ESE,102,7.0,9.0,70,0.00,,CLR,0.00,VWS V13.01,2013-06-09 17:45:00,
2013-06-09 13:50:00,65.9,55.8,30.12,ENE,74,2.0,11.0,70,0.00,,CLR,0.00,VWS V13.01,2013-06-09 17:50:00,
2013-06-09 13:55:00,66.1,56.4,30.12,ENE,66,5.0,10.0,71,0.00,,CLR,0.00,VWS V13.01,2013-06-09 17:55:00,
2013-06-09 14:00:00,66.1,56.0,30.12,NE,52,6.0,9.0,70,0.00,,CLR,0.00,VWS V13.01,2013-06-09 18:00:00,
2013-06-09 14:05:00,65.9,55.8,30.12,ESE,105,4.0,12.0,70,0.00,,CLR,0.00,VWS V13.01,2013-06-09 18:05:00,
2013-06-09 14:10:00,65.7,56.0,30.12,East,88,7.0,11.0,71,0.00,,CLR,0.00,VWS V13.01,2013-06-09 18:10:00,
2013-06-09 14:15:00,65.3,55.7,30.12,East,90,10.0,13.0,71,0.00,,CLR,0.00,VWS V13.01,2013-06-09 18:15:00,
2013-06-09 14:20:00,65.2,55.6,30.12,ENE,74,5.0,13.0,71,0.00,,CLR,0.00,VWS V13.01,2013-06-09 18:20:00,
2013-06-09 14:25:00,65.5,56.2,30.12,East,101,10.0,13.0,72,0.00,,CLR,0.00,VWS V13.01,2013-06-09 18:25:00,
2013-06-09 14:30:00,65.6,56.0,30.12,East,93,7.0,11.0,71,0.00,,CLR,0.00,VWS V13.01,2013-06-09 18:30:00,
2013-06-09 14:35:00,65.7,56.0,30.11,East,81,6.0,14.0,71,0.00,,CLR,0.00,VWS V13.01,2013-06-09 18:35:00,
2013-06-09 14:40:00,65.9,56.6,30.11,East,79,3.0,11.0,72,0.00,,CLR,0.00,VWS V13.01,2013-06-09 18:40:00,
2013-06-09 14:45:00,66.3,55.8,30.11,East,97,10.0,13.0,69,0.00,,CLR,0.00,VWS V13.01,2013-06-09 18:45:00,
2013-06-09 14:50:00,66.2,56.5,30.11,ESE,108,4.0,14.0,71,0.00,,CLR,0.00,VWS V13.01,2013-06-09 18:50:00,
2013-06-09 14:55:00,66.5,56.4,30.11,East,99,7.0,11.0,70,0.00,,CLR,0.00,VWS V13.01,2013-06-09 18:55:00,
2013-06-09 15:00:00,66.5,56.4,30.11,ESE,109,7.0,11.0,70,0.00,,CLR,0.00,VWS V13.01,2013-06-09 19:00:00,
2013-06-09 15:05:00,66.3,56.6,30.11,East,97,3.0,10.0,71,0.00,,CLR,0.00,VWS V13.01,2013-06-09 19:05:00,
2013-06-09 15:10:00,66.4,55.5,30.11,East,98,2.0,10.0,68,0.00,,CLR,0.00,VWS V13.01,2013-06-09 19:10:00,
2013-06-09 15:15:00,66.3,55.4,30.10,East,101,8.0,11.0,68,0.00,,CLR,0.00,VWS V13.01,2013-06-09 19:15:00,
2013-06-09 15:20:00,66.2,55.7,30.10,ESE,107,8.0,11.0,69,0.00,,CLR,0.00,VWS V13.01,2013-06-09 19:20:00,
2013-06-09 15:25:00,66.4,56.7,30.10,ESE,103,7.0,11.0,71,0.00,,CLR,0.00,VWS V13.01,2013-06-09 19:25:00,
2013-06-09 15:30:00,66.7,56.2,30.10,NE,55,3.0,13.0,69,0.00,,CLR,0.00,VWS V13.01,2013-06-09 19:30:00,
2013-06-09 15:35:00,67.2,56.3,30.09,NE,56,4.0,9.0,68,0.00,,CLR,0.00,VWS V13.01,2013-06-09 19:35:00,
2013-06-09 15:40:00,67.7,56.8,30.09,East,96,6.0,11.0,68,0.00,,CLR,0.00,VWS V13.01,2013-06-09 19:40:00,
2013-06-09 15:45:00,68.2,56.8,30.09,East,96,8.0,9.0,67,0.00,,CLR,0.00,VWS V13.01,2013-06-09 19:45:00,
2013-06-09 15:50:00,67.8,56.9,30.09,East,89,6.0,13.0,68,0.00,,CLR,0.00,VWS V13.01,2013-06-09 19:50:00,
2013-06-09 15:55:00,67.5,56.6,30.09,East,88,5.0,13.0,68,0.00,,CLR,0.00,VWS V13.01,2013-06-09 19:55:00,
2013-06-09 16:00:00,67.7,56.4,30.09,ESE,108,10.0,13.0,67,0.00,,CLR,0.00,VWS V13.01,2013-06-09 20:00:00,
2013-06-09 16:05:00,68.2,56.0,30.09,East,97,10.0,11.0,65,0.00,,CLR,0.00,VWS V13.01,2013-06-09 20:05:00,
2013-06-09 16:10:00,67.9,55.7,30.09,East,85,6.0,15.0,65,0.00,,CLR,0.00,VWS V13.01,2013-06-09 20:10:00,
2013-06-09 16:15:00,68.1,56.3,30.09,East,98,9.0,13.0,66,0.00,,CLR,0.00,VWS V13.01,2013-06-09 20:15:00,
2013-06-09 16:20:00,68.1,55.9,30.09,East,90,7.0,15.0,65,0.00,,CLR,0.00,VWS V13.01,2013-06-09 20:20:00,
2013-06-09 16:25:00,67.8,55.2,30.09,ESE,103,10.0,13.0,64,0.00,,CLR,0.00,VWS V13.01,2013-06-09 20:25:00,
2013-06-09 16:30:00,68.0,55.0,30.09,East,88,7.0,15.0,63,0.00,,CLR,0.00,VWS V13.01,2013-06-09 20:30:00,
2013-06-09 16:35:00,67.7,54.7,30.09,ENE,74,10.0,15.0,63,0.00,,CLR,0.00,VWS V13.01,2013-06-09 20:35:00,
2013-06-09 16:40:00,67.8,54.3,30.08,East,89,5.0,11.0,62,0.00,,CLR,0.00,VWS V13.01,2013-06-09 20:40:00,
2013-06-09 16:45:00,68.1,55.0,30.08,ENE,69,7.0,11.0,63,0.00,,CLR,0.00,VWS V13.01,2013-06-09 20:45:00,
2013-06-09 16:50:00,67.9,54.8,30.08,East,89,13.0,13.0,63,0.00,,CLR,0.00,VWS V13.01,2013-06-09 20:50:00,
2013-06-09 16:55:00,67.5,54.9,30.08,East,92,9.0,13.0,64,0.00,,CLR,0.00,VWS V13.01,2013-06-09 20:55:00,
2013-06-09 17:00:00,67.4,55.2,30.08,East,94,6.0,14.0,65,0.00,,CLR,0.00,VWS V13.01,2013-06-09 21:00:00,
2013-06-09 17:05:00,67.2,55.5,30.07,ENE,70,5.0,11.0,66,0.00,,FEW090,0.00,VWS V13.01,2013-06-09 21:05:00,
2013-06-09 17:10:00,67.2,55.0,30.06,East,101,9.0,15.0,65,0.00,,FEW090,0.00,VWS V13.01,2013-06-09 21:10:00,
2013-06-09 17:15:00,67.2,55.5,30.07,East,95,10.0,11.0,66,0.00,,FEW090,0.00,VWS V13.01,2013-06-09 21:15:00,
2013-06-09 17:20:00,67.4,55.2,30.07,ESE,109,10.0,13.0,65,0.00,,FEW090,0.00,VWS V13.01,2013-06-09 21:20:00,
2013-06-09 17:25:00,67.2,55.5,30.06,NE,54,5.0,16.0,66,0.00,,FEW090,0.00,VWS V13.01,2013-06-09 21:25:00,
2013-06-09 17:30:00,67.2,54.6,30.06,East,100,6.0,14.0,64,0.00,,FEW090,0.00,VWS V13.01,2013-06-09 21:30:00,
2013-06-09 17:35:00,67.4,55.2,30.06,East,84,8.0,13.0,65,0.00,,FEW090,0.00,VWS V13.01,2013-06-09 21:35:00,
2013-06-09 17:40:00,67.3,54.7,30.06,ENE,68,8.0,9.0,64,0.00,,FEW090,0.00,VWS V13.01,2013-06-09 21:40:00,
2013-06-09 17:45:00,67.0,54.4,30.06,ENE,74,3.0,11.0,64,0.00,,FEW090,0.00,VWS V13.01,2013-06-09 21:45:00,
2013-06-09 17:51:00,66.7,54.2,30.06,East,88,2.0,11.0,64,0.00,,FEW090,0.00,VWS V13.01,2013-06-09 21:51:00,
2013-06-09 17:56:00,66.7,54.6,30.06,NE,55,2.0,10.0,65,0.00,,FEW090,0.00,VWS V13.01,2013-06-09 21:56:00,
2013-06-09 18:01:00,66.7,54.6,30.06,East,92,5.0,8.0,65,0.00,,FEW090,0.00,VWS V13.01,2013-06-09 22:01:00,
2013-06-09 18:06:00,66.6,54.9,30.06,ENE,66,4.0,7.0,66,0.00,,CLR,0.00,VWS V13.01,2013-06-09 22:06:00,
2013-06-09 18:11:00,66.6,54.9,30.05,ENE,59,4.0,12.0,66,0.00,,CLR,0.00,VWS V13.01,2013-06-09 22:11:00,
2013-06-09 18:16:00,66.5,54.4,30.05,ENE,72,3.0,11.0,65,0.00,,CLR,0.00,VWS V13.01,2013-06-09 22:16:00,
2013-06-09 18:21:00,66.5,55.2,30.05,East,90,1.0,8.0,67,0.00,,CLR,0.00,VWS V13.01,2013-06-09 22:21:00,
2013-06-09 18:26:00,66.4,54.7,30.04,NE,48,10.0,10.0,66,0.00,,CLR,0.00,VWS V13.01,2013-06-09 22:26:00,
2013-06-09 18:31:00,66.2,54.5,30.04,NE,53,2.0,11.0,66,0.00,,CLR,0.00,VWS V13.01,2013-06-09 22:31:00,
2013-06-09 18:36:00,65.9,54.7,30.04,ENE,61,3.0,9.0,67,0.00,,CLR,0.00,VWS V13.01,2013-06-09 22:36:00,
2013-06-09 18:41:00,65.4,54.6,30.04,East,86,3.0,9.0,68,0.00,,CLR,0.00,VWS V13.01,2013-06-09 22:41:00,
2013-06-09 18:46:00,65.2,54.8,30.04,East,79,5.0,11.0,69,0.00,,CLR,0.00,VWS V13.01,2013-06-09 22:46:00,
2013-06-09 18:51:00,64.9,54.1,30.04,ENE,77,3.0,10.0,68,0.00,,CLR,0.00,VWS V13.01,2013-06-09 22:51:00,
2013-06-09 18:56:00,64.7,53.9,30.04,NNE,32,5.0,10.0,68,0.00,,CLR,0.00,VWS V13.01,2013-06-09 22:56:00,
2013-06-09 19:01:00,64.5,54.5,30.03,NE,34,0.0,9.0,70,0.00,,CLR,0.00,VWS V13.01,2013-06-09 23:01:00,
2013-06-09 19:06:00,64.2,53.8,30.04,NE,49,2.0,9.0,69,0.00,,CLR,0.00,VWS V13.01,2013-06-09 23:06:00,
2013-06-09 19:11:00,64.0,54.0,30.04,ENE,71,4.0,7.0,70,0.00,,CLR,0.00,VWS V13.01,2013-06-09 23:11:00,
2013-06-09 19:16:00,63.7,54.1,30.04,NE,44,4.0,8.0,71,0.00,,CLR,0.00,VWS V13.01,2013-06-09 23:16:00,
2013-06-09 19:21:00,63.3,53.4,30.04,NE,54,7.0,10.0,70,0.00,,CLR,0.00,VWS V13.01,2013-06-09 23:21:00,
2013-06-09 19:26:00,62.8,53.3,30.05,East,91,3.0,10.0,71,0.00,,CLR,0.00,VWS V13.01,2013-06-09 23:26:00,
2013-06-09 19:31:00,62.5,53.4,30.05,ENE,69,3.0,9.0,72,0.00,,CLR,0.00,VWS V13.01,2013-06-09 23:31:00,
2013-06-09 19:36:00,62.3,53.2,30.05,NE,51,3.0,9.0,72,0.00,,CLR,0.00,VWS V13.01,2013-06-09 23:36:00,
2013-06-09 19:42:00,62.1,53.0,30.05,ENE,78,1.0,7.0,72,0.00,,CLR,0.00,VWS V13.01,2013-06-09 23:42:00,
2013-06-09 19:47:00,61.9,52.8,30.05,NNE,30,3.0,6.0,72,0.00,,CLR,0.00,VWS V13.01,2013-06-09 23:47:00,
2013-06-09 19:52:00,61.7,52.6,30.05,ENE,61,2.0,7.0,72,0.00,,CLR,0.00,VWS V13.01,2013-06-09 23:52:00,
2013-06-09 19:57:00,61.6,52.5,30.05,North,10,1.0,6.0,72,0.00,,CLR,0.00,VWS V13.01,2013-06-09 23:57:00,
2013-06-09 20:02:00,61.4,52.7,30.04,NE,49,5.0,8.0,73,0.00,,CLR,0.00,VWS V13.01,2013-06-10 00:02:00,
2013-06-09 20:07:00,61.3,52.6,30.04,NNE,19,1.0,4.0,73,0.00,,CLR,0.00,VWS V13.01,2013-06-10 00:07:00,
2013-06-09 20:12:00,61.1,52.0,30.04,ENE,63,1.0,6.0,72,0.00,,CLR,0.00,VWS V13.01,2013-06-10 00:12:00,
2013-06-09 20:17:00,61.1,52.0,30.04,NNE,19,4.0,6.0,72,0.00,,CLR,0.00,VWS V13.01,2013-06-10 00:17:00,
2013-06-09 20:22:00,60.9,51.8,30.04,NE,43,0.0,3.0,72,0.00,,CLR,0.00,VWS V13.01,2013-06-10 00:22:00,
2013-06-09 20:27:00,60.7,52.0,30.04,North,5,3.0,4.0,73,0.00,,CLR,0.00,VWS V13.01,2013-06-10 00:27:00,
2013-06-09 20:32:00,60.5,51.8,30.04,ENE,67,0.0,4.0,73,0.00,,CLR,0.00,VWS V13.01,2013-06-10 00:32:00,
2013-06-09 20:37:00,60.4,51.7,30.04,ENE,71,2.0,4.0,73,0.00,,CLR,0.00,VWS V13.01,2013-06-10 00:37:00,
2013-06-09 20:42:00,60.3,51.6,30.04,West,262,1.0,2.0,73,0.00,,CLR,0.00,VWS V13.01,2013-06-10 00:42:00,
2013-06-09 20:47:00,60.3,51.6,30.04,ENE,61,0.0,2.0,73,0.00,,CLR,0.00,VWS V13.01,2013-06-10 00:47:00,
2013-06-09 20:52:00,60.3,51.6,30.04,ENE,57,1.0,3.0,73,0.00,,CLR,0.00,VWS V13.01,2013-06-10 00:52:00,
2013-06-09 20:57:00,60.2,51.9,30.04,NE,55,1.0,3.0,74,0.00,,CLR,0.00,VWS V13.01,2013-06-10 00:57:00,
2013-06-09 21:02:00,60.1,51.8,30.04,NE,53,3.0,3.0,74,0.00,,CLR,0.00,VWS V13.01,2013-06-10 01:02:00,
2013-06-09 21:07:00,59.9,51.2,30.04,ESE,106,0.0,4.0,73,0.00,,CLR,0.00,VWS V13.01,2013-06-10 01:07:00,
2013-06-09 21:12:00,59.8,51.5,30.03,ESE,103,0.0,1.0,74,0.00,,CLR,0.00,VWS V13.01,2013-06-10 01:12:00,
2013-06-09 21:17:00,59.6,51.0,30.03,ENE,68,0.0,3.0,73,0.00,,CLR,0.00,VWS V13.01,2013-06-10 01:17:00,
2013-06-09 21:22:00,59.5,51.2,30.04,East,81,0.0,2.0,74,0.00,,CLR,0.00,VWS V13.01,2013-06-10 01:22:00,
2013-06-09 21:27:00,59.4,50.8,30.04,North,349,0.0,3.0,73,0.00,,CLR,0.00,VWS V13.01,2013-06-10 01:27:00,
2013-06-09 21:32:00,59.3,50.7,30.04,NE,53,0.0,3.0,73,0.00,,CLR,0.00,VWS V13.01,2013-06-10 01:32:00,
2013-06-09 21:37:00,59.3,51.0,30.04,NE,53,0.0,1.0,74,0.00,,CLR,0.00,VWS V13.01,2013-06-10 01:37:00,
2013-06-09 21:42:00,59.1,51.2,30.04,NNE,20,0.0,2.0,75,0.00,,CLR,0.00,VWS V13.01,2013-06-10 01:42:00,
2013-06-09 21:47:00,59.1,51.2,30.04,NNE,21,0.0,1.0,75,0.00,,CLR,0.00,VWS V13.01,2013-06-10 01:47:00,
2013-06-09 21:52:00,59.0,51.1,30.04,NNE,20,0.0,1.0,75,0.00,,CLR,0.00,VWS V13.01,2013-06-10 01:52:00,
2013-06-09 21:57:00,59.0,51.5,30.04,NNE,19,0.0,1.0,76,0.00,,CLR,0.00,VWS V13.01,2013-06-10 01:57:00,
2013-06-09 22:02:00,58.9,51.4,30.04,NNE,19,0.0,1.0,76,0.00,,CLR,0.00,VWS V13.01,2013-06-10 02:02:00,
2013-06-09 22:07:00,58.9,51.7,30.04,NNE,19,0.0,1.0,77,0.00,,CLR,0.00,VWS V13.01,2013-06-10 02:07:00,
2013-06-09 22:13:00,58.7,51.5,30.04,NNE,18,0.0,1.0,77,0.00,,CLR,0.00,VWS V13.01,2013-06-10 02:13:00,
2013-06-09 22:18:00,58.7,51.5,30.04,North,5,0.0,2.0,77,0.00,,CLR,0.00,VWS V13.01,2013-06-10 02:18:00,
2013-06-09 22:23:00,58.6,51.4,30.03,North,5,0.0,2.0,77,0.00,,CLR,0.00,VWS V13.01,2013-06-10 02:23:00,
2013-06-09 22:28:00,58.5,51.3,30.03,ENE,77,1.0,2.0,77,0.00,,CLR,0.00,VWS V13.01,2013-06-10 02:28:00,
2013-06-09 22:33:00,58.6,51.4,30.03,East,89,2.0,5.0,77,0.00,,CLR,0.00,VWS V13.01,2013-06-10 02:33:00,
2013-06-09 22:38:00,58.8,52.0,30.03,ENE,60,0.0,7.0,78,0.00,,CLR,0.00,VWS V13.01,2013-06-10 02:38:00,
2013-06-09 22:43:00,58.9,51.7,30.03,East,86,0.0,5.0,77,0.00,,CLR,0.00,VWS V13.01,2013-06-10 02:43:00,
2013-06-09 22:48:00,59.0,51.8,30.03,ENE,60,1.0,2.0,77,0.00,,CLR,0.00,VWS V13.01,2013-06-10 02:48:00,
2013-06-09 22:53:00,59.0,51.8,30.03,ENE,60,0.0,1.0,77,0.00,,CLR,0.00,VWS V13.01,2013-06-10 02:53:00,
2013-06-09 22:58:00,58.9,51.7,30.03,ENE,76,2.0,2.0,77,0.00,,CLR,0.00,VWS V13.01,2013-06-10 02:58:00,
2013-06-09 23:03:00,58.9,51.7,30.03,East,95,0.0,3.0,77,0.00,,CLR,0.00,VWS V13.01,2013-06-10 03:03:00,
2013-06-09 23:08:00,59.0,51.5,30.03,East,95,1.0,5.0,76,0.00,,CLR,0.00,VWS V13.01,2013-06-10 03:08:00,
2013-06-09 23:13:00,59.0,51.1,30.03,ENE,74,0.0,3.0,75,0.00,,CLR,0.00,VWS V13.01,2013-06-10 03:13:00,
2013-06-09 23:18:00,59.1,51.2,30.03,ENE,70,3.0,8.0,75,0.00,,CLR,0.00,VWS V13.01,2013-06-10 03:18:00,
2013-06-09 23:23:00,59.2,51.3,30.03,ENE,66,0.0,3.0,75,0.00,,CLR,0.00,VWS V13.01,2013-06-10 03:23:00,
2013-06-09 23:28:00,59.1,51.2,30.03,ENE,57,2.0,4.0,75,0.00,,CLR,0.00,VWS V13.01,2013-06-10 03:28:00,
2013-06-09 23:33:00,58.9,51.0,30.03,NNE,27,1.0,5.0,75,0.00,,CLR,0.00,VWS V13.01,2013-06-10 03:33:00,
2013-06-09 23:38:00,58.6,51.1,30.02,ENE,66,3.0,4.0,76,0.00,,CLR,0.00,VWS V13.01,2013-06-10 03:38:00,
2013-06-09 23:43:00,58.4,50.9,30.02,NE,39,1.0,4.0,76,0.00,,CLR,0.00,VWS V13.01,2013-06-10 03:43:00,
2013-06-09 23:48:00,58.2,51.0,30.02,ENE,61,2.0,3.0,77,0.00,,CLR,0.00,VWS V13.01,2013-06-10 03:48:00,
2013-06-09 23:53:00,58.1,50.9,30.02,NE,47,0.0,7.0,77,0.00,,CLR,0.00,VWS V13.01,2013-06-10 03:53:00,
2013-06-09 23:58:00,58.0,50.8,30.02,NE,53,0.0,4.0,77,0.00,,CLR,0.00,VWS V13.01,2013-06-10 03:58:00,